Location: Quedlinburg
(51.7921°N, 11.1414°E)
Time: 08:20:21
(UTC+02:00)

SO-50 - Pass Details

Date: 11 March 2026
Orbit: 567 x 673 km, 64.6° (Epoch: 13 April)

Event Time Altitude Azimuth Distance (km) Brightness Sun altitude
Rises 19:46:54 0° 215° (SW) 2,929 ? -15.2°
Reaches altitude 10° 19:49:09 10° 214° (SW) 2,040 ? -15.6°
Maximum altitude 19:53:47 75° 130° (SE) 686 ? -16.3°
Drops below altitude 10° 19:58:34 10° 45° (NE) 2,102 ? -17.0°
Enters shadow 19:59:00 - 45° (NE) 2,272 ? -17.0°
